Temp
50 52 52 51 49 50 48 49 39 47 49 57 61 62 63 66 65 66 65 64 65 68 68 69 68 68 67 67 65 63 61 60 59 57 57 55 54 54 54 53 53 53 51 50
39 50 48 42 48 51 50 49 47 45 42 58 59 58 60 63 63 60 61 64 67 68 67 68 67 65 64 64 62 62 61 59 57 56 55 54 54 53 53 52 51 50 48 43
31 43 42 32 37 45 48 51 49 37 47 55 54 56 54 55 54 51 51 58 63 67 68 67 68 66 65 65 63 61 60 59 51 52 50 49 52 52 49 48 48 44 39 41
33 40 26 47 59 56 52 53 56 54 55 57 57 58 57 59 53 49 52 56 59 63 66 68 67 68 65 65 62 59 58 52 50 50 40 47 43 38 40 41 36 35 35 35
29 34 40 46 51 44 42 47 47 49 54 52 54 53 54 58 52 52 50 47 48 50 53 59 62 65 65 62 60 56 49 44 43 40 38 41 35 35 35 35 34 33 34 34
31 26 26 40 45 49 48 35 36 40 42 44 48 43 51 53 54 52 52 52 40 43 50 53 57 63 58 55 52 44 43 41 40 37 37 36 35 34 35 35 34 36 34 34
31 27 35 43 45 47 29 28 36 37 38 41 41 48 51 52 51 53 50 52 55 53 39 49 57 59 56 45 44 41 40 38 40 44 38 36 36 35 34 34 34 34 33 33
31 27 25 44 44 32 39 45 42 43 45 45 47 48 44 46 47 52 53 55 56 53 52 47 45 56 55 47 43 42 39 39 38 38 38 38 36 34 34 34 33 33 32 32
37 36 47 49 47 49 49 47 47 47 49 48 46 43 40 41 45 49 53 56 57 56 52 49 49 54 46 43 43 41 40 38 36 38 38 37 35 34 35 35 35 33 32 32
37 42 45 48 51 51 52 49 50 51 50 49 40 37 36 41 45 49 54 55 56 54 50 46 45 49 50 41 41 40 39 38 38 37 36 36 37 36 36 35 35 34 32 32
37 42 45 48 50 51 50 50 49 50 49 47 47 47 47 47 49 50 50 52 55 52 50 46 45 43 40 41 41 40 39 38 37 37 36 35 35 36 36 37 37 34 34 34
33 44 43 43 48 50 47 47 49 49 48 49 49 47 49 47 49 49 47 47 48 52 49 47 43 42 41 42 43 40 38 36 36 36 36 35 34 33 34 35 35 35 34 34
42 47 46 46 48 50 47 49 50 49 49 48 50 50 49 48 49 47 47 48 47 45 49 49 43 41 42 41 41 38 37 36 36 36 36 34 33 33 31 31 33 33 33 33
48 47 43 46 45 49 49 50 50 51 50 49 50 51 50 49 50 50 50 51 50 46 46 46 43 40 41 41 43 39 39 36 39 36 36 35 35 34 34 32 31 31 32 33
46 47 46 47 48 46 49 49 46 45 45 44 48 48 49 49 49 49 52 54 53 49 47 43 39 38 39 40 40 38 39 38 38 37 36 36 36 36 36 35 34 33 32 30
44 44 46 45 41 41 43 45 42 40 40 43 45 47 48 48 49 50 52 53 49 47 46 39 37 38 37 37 38 38 38 35 37 37 35 35 35 35 35 35 33 33 33 32
38 38 39 37 35 35 35 35 35 34 34 35 36 36 36 36 36 38 42 48 49 43 44 39 36 35 35 36 38 38 38 36 35 36 36 35 36 36 35 34 33 34 34 34
38 37 36 34 33 33 34 35 35 34 33 34 34 33 32 32 33 35 36 37 38 37 39 38 36 34 35 36 38 38 38 37 36 36 36 35 36 37 38 35 34 34 34 32
42 39 37 33 34 34 34 34 34 34 34 33 32 32 32 33 33 33 33 33 33 36 36 37 34 34 35 35 38 39 39 37 38 39 38 34 35 36 35 34 34 34 34 32
40 37 34 34 35 35 34 33 33 33 33 32 32 32 32 33 32 32 32 32 35 39 38 37 34 34 35 35 37 41 40 38 39 37 35 34 33 33 33 32 33 32 32 32
36 35 33 32 32 33 33 33 32 32 32 32 32 32 32 32 32 32 32 29 31 34 37 34 34 34 36 36 39 39 37 35 35 34 32 32 32 32 32 32 32 32 31 32
34 34 33 32 32 33 34 34 34 33 32 32 32 32 32 32 32 32 31 31 32 32 33 33 33 35 36 34 42 35 35 36 35 34 32 32 32 31 31 31 31 31 31 32
35 33 33 33 33 33 35 35 33 33 32 31 31 31 31 32 33 31 30 32 32 32 32 33 33 33 33 35 33 33 33 33 33 33 32 32 32 31 31 31 31 31 31 31
34 35 35 35 36 37 35 36 38 37 33 33 33 32 32 31 34 34 33 32 32 32 32 32 32 32 33 33 32 32 32 32 32 32 32 32 32 31 31 31 31 31 31 31
37 39 39 38 39 39 38 38 36 36 36 37 36 35 34 34 32 34 33 33 31 32 32 32 32 32 32 32 32 32 32 32 32 32 32 31 31 31 31 31 31 31 31 31
39 40 40 40 40 40 40 39 36 36 36 34 36 34 33 33 34 34 34 32 34 33 32 32 32 32 32 33 33 33 33 33 32 32 32 32 32 31 30 30 30 31 31 31
40 34 40 40 42 40 39 37 33 33 34 32 33 34 34 33 33 33 32 33 33 34 32 32 32 33 33 33 33 33 33 32 32 32 31 31 31 31 31 30 31 31 31 31
MSLP
1005.96 1005.39 1005.49 1005.15 1005.32 1004.69 1004.76 1004.56 1004.65 1003.23 1002.86 1001.17 1001.70 1001.91 1002.20 1002.24 1002.76 1003.15 1003.43 1003.87 1004.24 1004.33 1004.80 1005.06 1005.64 1006.37 1007.21 1007.79 1008.72 1009.66 1010.42 1010.93 1011.46 1012.24 1013.09 1013.62 1014.36 1015.08 1015.86 1016.59 1016.94 1017.32 1017.84 1018.79
1007.36 1006.35 1005.90 1005.43 1004.88 1003.87 1004.32 1004.28 1004.51 1004.48 1003.79 1003.20 1003.47 1003.71 1002.86 1002.71 1002.95 1003.67 1004.20 1004.15 1004.11 1004.22 1004.35 1004.33 1004.99 1005.80 1006.64 1007.38 1008.44 1009.29 1009.93 1010.35 1011.19 1012.01 1012.83 1013.47 1013.92 1014.52 1015.52 1015.98 1017.03 1017.47 1017.80 1018.76
1007.73 1007.26 1006.35 1005.41 1004.36 1004.19 1003.85 1003.82 1003.90 1003.78 1003.08 1003.47 1003.61 1003.59 1003.83 1004.15 1004.76 1004.91 1005.65 1005.70 1004.69 1004.24 1003.87 1004.10 1004.22 1005.05 1005.54 1006.34 1007.59 1008.54 1009.10 1010.03 1011.26 1011.77 1012.59 1013.46 1014.18 1014.78 1015.23 1015.99 1017.07 1017.93 1018.54 1018.97
1008.39 1007.58 1005.27 1003.19 1002.88 1002.93 1002.63 1002.82 1003.11 1002.99 1002.97 1003.08 1002.73 1003.42 1003.69 1004.01 1004.72 1005.25 1005.80 1005.90 1005.57 1005.04 1004.52 1004.06 1004.19 1004.26 1005.01 1005.95 1007.04 1007.96 1008.54 1009.88 1010.79 1011.67 1012.76 1013.43 1014.32 1015.11 1015.53 1016.28 1017.22 1018.19 1018.55 1018.95
1008.99 1006.95 1005.42 1004.33 1003.49 1004.82 1004.88 1003.98 1005.16 1004.49 1003.83 1003.92 1004.44 1004.79 1004.27 1004.75 1005.85 1006.07 1006.46 1006.58 1006.58 1005.80 1005.28 1004.82 1004.47 1004.09 1004.41 1005.12 1006.42 1007.56 1008.31 1009.61 1010.29 1011.17 1012.41 1013.17 1014.16 1015.20 1015.69 1016.28 1017.10 1018.01 1018.61 1019.22
1009.10 1007.85 1005.99 1005.22 1006.07 1006.38 1006.01 1006.53 1008.32 1008.06 1007.38 1006.94 1006.40 1005.26 1004.45 1005.90 1006.30 1006.38 1006.55 1006.48 1006.31 1005.63 1005.11 1004.84 1004.21 1003.90 1004.63 1004.79 1006.07 1006.98 1007.88 1008.81 1009.95 1010.94 1011.63 1012.94 1013.67 1014.78 1015.70 1016.36 1016.57 1017.52 1018.46 1019.19
1008.93 1007.93 1006.48 1006.73 1007.17 1006.86 1007.24 1008.82 1009.29 1009.35 1009.22 1008.71 1008.08 1007.17 1006.56 1006.78 1006.70 1006.50 1006.47 1005.99 1005.23 1004.74 1004.37 1004.50 1003.93 1003.76 1003.95 1004.86 1005.56 1006.02 1007.43 1008.63 1009.78 1010.54 1011.52 1012.68 1013.69 1014.66 1015.32 1016.01 1016.58 1017.17 1017.99 1019.00
1008.35 1007.56 1006.96 1007.76 1007.42 1007.90 1008.24 1008.13 1008.84 1008.75 1008.26 1007.97 1007.73 1007.44 1007.44 1007.38 1006.84 1006.03 1005.65 1005.32 1004.78 1004.27 1003.74 1003.87 1004.17 1003.20 1003.41 1004.46 1005.37 1006.47 1007.26 1008.61 1009.45 1010.60 1011.52 1012.50 1013.79 1014.62 1015.39 1015.48 1016.43 1016.95 1017.46 1018.64
1007.94 1006.82 1006.39 1007.01 1007.26 1007.74 1007.69 1007.32 1007.35 1007.43 1007.10 1007.03 1006.79 1006.97 1007.17 1007.01 1006.36 1005.83 1005.34 1004.64 1004.21 1003.73 1003.54 1003.67 1003.85 1003.01 1003.22 1003.78 1005.52 1006.20 1007.27 1008.26 1009.08 1010.40 1011.26 1012.46 1013.38 1014.12 1014.89 1015.26 1016.10 1016.91 1017.13 1018.03
1008.21 1007.32 1007.01 1006.70 1006.92 1006.75 1006.61 1006.61 1006.41 1006.41 1006.33 1006.27 1006.08 1006.37 1006.48 1006.63 1005.77 1005.13 1004.60 1004.05 1003.83 1003.41 1003.30 1003.93 1003.88 1003.54 1003.37 1004.34 1005.34 1005.92 1006.62 1007.71 1008.89 1010.15 1011.49 1012.36 1013.09 1013.56 1014.10 1014.88 1015.58 1016.40 1016.69 1017.54
1007.73 1007.43 1006.66 1006.37 1005.85 1005.82 1005.90 1006.23 1006.00 1005.82 1005.76 1005.61 1005.38 1004.88 1004.93 1005.10 1004.74 1004.21 1004.19 1003.64 1003.29 1003.14 1002.94 1003.19 1003.61 1003.49 1003.99 1005.07 1005.03 1005.33 1006.09 1006.98 1008.69 1010.16 1011.22 1011.94 1012.61 1012.77 1013.40 1014.39 1014.68 1015.30 1015.80 1016.67
1006.87 1006.41 1006.41 1005.77 1005.58 1005.70 1005.72 1005.38 1005.15 1004.72 1004.29 1004.30 1004.34 1003.97 1003.84 1003.58 1003.41 1003.44 1003.33 1003.28 1003.02 1002.92 1002.82 1003.02 1003.59 1003.90 1004.30 1004.37 1004.78 1004.77 1005.68 1006.87 1008.20 1009.43 1010.58 1011.64 1012.17 1012.77 1013.51 1014.12 1014.56 1014.96 1015.53 1016.28
1006.41 1006.43 1006.32 1005.93 1005.41 1005.39 1005.10 1004.49 1004.00 1003.67 1003.31 1002.95 1002.79 1002.86 1002.65 1002.51 1002.38 1002.58 1002.52 1002.55 1002.16 1002.79 1002.27 1002.73 1003.17 1003.64 1003.84 1004.08 1004.27 1004.74 1005.52 1006.30 1007.55 1008.72 1009.96 1010.90 1011.49 1012.35 1013.19 1014.49 1014.84 1015.13 1015.59 1016.32
1006.22 1006.03 1005.65 1005.38 1004.66 1004.56 1004.22 1003.61 1002.99 1002.46 1002.27 1002.15 1001.97 1001.85 1001.54 1001.42 1001.32 1001.38 1001.18 1001.16 1001.36 1002.08 1001.64 1001.63 1003.36 1002.90 1003.46 1004.22 1004.78 1005.12 1005.50 1006.06 1006.89 1008.05 1009.37 1010.07 1011.17 1011.53 1012.46 1013.43 1014.07 1014.67 1015.57 1016.21
1005.63 1005.67 1005.58 1005.30 1004.82 1004.37 1003.72 1003.36 1002.98 1002.44 1002.07 1001.86 1001.55 1001.04 1000.86 1000.57 1000.31 1000.17 1000.11 1000.10 1000.27 1000.59 1000.91 1000.67 1002.86 1002.30 1003.22 1003.93 1005.15 1005.67 1005.29 1005.75 1006.45 1007.68 1008.46 1010.07 1010.70 1011.03 1012.02 1012.66 1013.12 1013.75 1015.17 1016.26
1005.53 1005.59 1005.26 1004.99 1005.21 1005.05 1004.51 1003.70 1003.32 1002.82 1002.44 1001.82 1001.22 1000.80 1000.52 1000.31 999.97 999.51 999.25 999.10 999.10 999.26 1000.09 1000.55 1000.72 1001.61 1002.70 1003.34 1004.43 1005.61 1005.51 1005.53 1006.41 1007.16 1008.84 1009.75 1009.87 1010.47 1011.67 1012.08 1012.38 1013.38 1014.51 1015.18
1005.65 1005.41 1005.55 1005.58 1005.75 1005.60 1005.29 1004.99 1004.52 1003.96 1003.39 1002.80 1002.22 1001.91 1001.54 1000.92 1000.38 999.78 999.17 998.59 998.32 998.41 998.92 999.75 1000.19 1000.54 1002.39 1003.03 1003.86 1005.07 1005.23 1005.44 1006.33 1007.57 1008.85 1008.97 1009.34 1009.59 1011.05 1011.37 1011.77 1012.76 1013.77 1014.46
1005.98 1006.16 1006.39 1006.45 1006.26 1005.87 1005.45 1005.09 1004.73 1004.30 1003.74 1003.13 1002.49 1001.88 1001.20 1000.50 999.73 998.81 998.03 997.73 997.58 997.36 998.00 998.82 999.79 1000.40 1001.68 1002.11 1003.61 1004.66 1004.66 1004.93 1006.31 1007.41 1007.67 1008.49 1008.84 1009.29 1010.30 1010.97 1011.31 1012.26 1013.13 1014.14
1005.58 1005.81 1006.20 1006.37 1006.19 1005.89 1005.54 1005.13 1004.78 1004.37 1003.76 1003.10 1002.28 1001.43 1000.62 999.81 998.84 997.66 996.72 996.23 996.23 996.10 996.79 998.09 999.36 1000.16 1000.76 1001.79 1003.14 1003.79 1004.22 1004.86 1006.17 1006.48 1006.75 1007.96 1008.51 1009.26 1009.94 1010.45 1010.96 1011.91 1012.54 1013.41
1005.54 1005.98 1006.23 1006.09 1005.88 1005.67 1005.34 1005.03 1004.68 1004.16 1003.59 1002.89 1002.07 1001.13 1000.17 999.24 998.07 996.54 994.75 994.61 994.60 994.78 996.10 997.51 998.85 999.41 1000.11 1001.47 1002.26 1003.14 1003.63 1004.52 1004.99 1005.86 1006.66 1007.19 1008.05 1009.19 1009.76 1010.01 1010.72 1011.53 1012.08 1012.63
1005.67 1005.88 1005.96 1005.87 1005.68 1005.48 1005.17 1004.85 1004.47 1003.98 1003.47 1002.82 1002.06 1001.20 1000.26 999.29 998.06 996.85 995.70 995.10 995.16 995.05 995.95 997.16 998.03 998.67 999.79 1001.16 1002.11 1002.66 1003.48 1004.08 1004.84 1005.90 1006.40 1007.03 1007.79 1008.91 1009.51 1009.71 1010.59 1010.96 1011.44 1011.91
1005.67 1005.74 1005.76 1005.59 1005.30 1004.94 1004.65 1004.34 1004.01 1003.67 1003.33 1002.80 1002.11 1001.37 1000.49 999.53 998.60 997.62 997.17 996.80 996.61 996.39 996.56 997.24 997.58 998.57 999.92 1001.09 1001.59 1002.68 1003.32 1003.91 1004.75 1005.48 1006.31 1006.88 1007.66 1008.49 1008.96 1009.43 1010.11 1010.49 1010.75 1011.17
1005.40 1005.45 1005.35 1005.09 1004.88 1004.59 1004.23 1003.85 1003.61 1003.37 1002.99 1002.65 1002.28 1001.70 1001.02 1000.17 999.46 998.70 998.03 997.67 997.42 997.41 997.24 997.62 998.43 999.29 1000.17 1000.97 1001.72 1002.56 1003.35 1003.60 1004.53 1005.23 1005.95 1006.80 1007.48 1008.06 1008.47 1008.99 1009.49 1009.99 1010.23 1010.47
1005.17 1005.04 1004.88 1004.80 1004.59 1004.14 1003.84 1003.63 1003.27 1002.99 1002.85 1002.49 1002.18 1001.96 1001.43 1000.67 1000.02 999.82 999.42 998.98 998.63 998.46 998.54 998.91 999.41 999.98 1000.66 1001.36 1002.06 1002.71 1003.03 1003.46 1004.26 1005.17 1005.99 1006.63 1007.24 1007.67 1008.18 1008.69 1009.16 1009.46 1009.71 1009.98
1004.67 1004.44 1004.33 1004.21 1003.87 1003.68 1003.67 1003.55 1003.32 1002.93 1002.57 1002.14 1001.95 1001.82 1001.62 1001.30 1000.97 1000.49 1000.16 999.96 999.91 999.82 999.78 999.93 1000.28 1000.92 1001.39 1001.63 1002.12 1002.52 1002.79 1003.51 1004.12 1004.96 1005.60 1006.16 1006.61 1006.93 1007.53 1008.19 1008.58 1009.14 1009.26 1009.49
1004.20 1004.11 1004.07 1004.05 1003.91 1003.78 1003.67 1003.52 1003.34 1003.09 1002.74 1002.34 1001.93 1001.86 1001.79 1001.65 1001.35 1000.98 1000.66 1000.52 1000.34 1000.35 1000.58 1000.82 1001.02 1001.34 1001.69 1002.01 1002.26 1002.64 1003.23 1003.69 1004.27 1004.82 1005.28 1005.67 1006.05 1006.50 1007.23 1007.74 1008.13 1008.47 1008.74 1008.94
1004.07 1004.31 1003.87 1003.69 1003.61 1003.71 1003.78 1003.80 1003.71 1003.41 1003.05 1002.78 1002.37 1002.04 1001.99 1001.84 1001.58 1001.44 1001.25 1001.03 1000.96 1000.98 1001.09 1001.27 1001.41 1001.61 1001.91 1002.15 1002.46 1002.87 1003.43 1003.84 1004.15 1004.58 1005.00 1005.32 1005.66 1006.14 1006.84 1007.21 1007.55 1007.91 1008.16 1008.37
Wind_Speed
24 26 26 24 22 23 22 23 23 27 26 30 19 13 16 17 17 18 13 12 16 16 15 15 14 14 13 13 13 13 13 12 11 11 12 12 13 13 12 13 13 13 13 11
22 26 23 21 26 29 25 25 20 19 23 20 7 10 11 17 17 15 12 12 13 16 16 16 16 15 15 15 15 15 14 12 12 12 12 12 13 14 15 14 12 12 12 11
7 17 19 17 23 28 29 29 25 21 22 20 14 16 11 12 15 10 12 21 19 18 17 18 17 15 17 18 16 16 15 14 12 13 13 11 13 14 13 14 13 13 10 12
10 14 17 11 17 19 24 23 26 30 27 23 19 15 16 18 13 12 13 20 15 15 15 14 14 16 14 14 16 16 15 13 14 14 12 14 10 10 11 10 11 10 10 9
6 12 18 20 10 7 10 14 14 12 13 10 10 12 17 12 6 9 8 9 12 11 12 12 13 13 16 17 17 16 14 14 13 13 14 13 12 12 10 10 10 9 9 9
5 9 14 1 7 10 8 9 14 18 14 14 13 11 1 10 12 11 11 10 9 12 12 13 13 12 14 15 15 14 15 15 14 13 14 14 14 14 9 8 9 8 9 9
13 12 8 8 11 5 7 3 7 9 13 14 13 13 17 17 16 15 12 15 15 12 8 12 11 14 16 11 16 15 12 13 13 16 13 12 11 10 11 11 10 10 10 9
5 9 16 7 6 5 8 8 12 14 15 17 18 17 9 13 15 18 17 16 14 12 11 6 11 13 16 17 11 11 13 14 13 11 10 10 12 11 10 11 11 10 10 8
7 7 9 15 13 10 11 14 16 18 19 17 17 14 10 12 14 17 20 15 13 11 11 8 10 13 10 7 14 15 15 14 13 12 10 11 12 12 10 10 9 8 8 8
14 15 18 18 18 21 20 17 18 19 20 18 14 12 13 16 14 14 16 16 12 10 8 11 7 10 9 11 12 15 15 15 13 12 12 11 8 9 9 10 9 8 9 8
14 17 21 18 19 17 20 19 20 20 20 21 21 21 19 16 18 14 16 16 13 12 8 8 8 7 9 12 15 15 14 13 13 10 11 10 8 9 9 9 10 10 8 9
13 19 16 22 22 22 22 23 23 23 23 21 21 23 23 17 14 15 14 15 14 14 9 7 8 8 10 14 15 13 14 12 11 10 9 9 8 7 5 9 12 11 13 11
16 18 19 21 24 23 22 22 22 21 23 23 21 19 23 20 18 14 15 17 12 12 11 8 9 8 7 8 10 13 13 13 11 11 10 10 9 9 9 6 11 13 15 12
17 18 18 19 18 20 20 21 22 22 20 21 21 19 19 19 19 19 19 16 14 12 10 8 12 11 9 6 10 11 14 14 11 10 9 9 8 8 7 9 10 8 9 10
12 11 14 17 17 20 19 16 18 18 16 16 18 19 17 19 19 19 20 18 15 12 12 10 11 10 11 11 10 13 13 11 10 9 9 9 8 8 8 9 8 8 8 8
10 11 12 12 15 15 18 15 16 17 15 16 14 14 15 15 18 20 19 18 16 14 14 11 12 11 12 12 12 8 9 12 10 10 9 9 8 9 9 9 8 8 9 10
9 9 12 15 13 13 14 11 10 13 14 14 15 15 15 14 14 16 19 19 16 13 12 13 14 13 14 14 14 10 8 10 12 9 9 9 9 10 9 8 8 9 10 10
3 6 8 10 11 12 12 11 10 12 12 14 13 13 13 14 15 18 18 16 17 12 14 14 13 15 15 15 13 10 9 11 11 11 11 9 9 9 10 9 8 9 9 11
7 9 6 7 8 8 9 9 10 12 11 11 12 12 13 13 15 18 17 16 17 18 13 15 19 19 17 18 15 10 12 14 13 11 10 11 9 9 9 8 8 9 10 10
6 4 5 6 7 7 8 7 8 9 10 11 12 12 13 14 15 17 12 12 14 10 14 16 18 15 16 18 15 12 13 14 13 11 9 10 9 8 8 9 9 10 10 10
4 4 5 6 6 7 6 6 7 8 10 11 11 12 13 13 14 13 9 4 7 10 15 19 14 10 12 15 13 10 11 11 10 10 9 8 9 9 8 9 10 10 10 10
3 4 5 6 6 7 6 6 6 7 10 10 11 11 12 12 12 9 10 8 5 5 9 9 9 16 13 18 11 10 11 12 10 9 8 8 9 10 9 10 11 10 11 10
3 4 5 6 6 8 9 7 5 5 8 10 11 12 11 9 7 8 7 9 5 6 5 5 12 16 20 10 9 9 11 11 9 8 8 8 9 9 9 10 10 10 10 9
3 4 4 5 6 7 10 11 11 8 5 7 9 8 9 9 7 6 5 6 7 7 7 8 10 15 12 8 9 9 9 9 9 8 8 10 8 7 8 9 9 10 10 11
4 4 4 5 6 5 7 8 9 9 11 11 9 8 9 7 5 7 6 5 6 5 5 8 11 11 5 6 7 7 7 7 8 8 8 9 8 8 8 9 10 9 9 10
3 3 4 5 5 5 5 7 8 8 8 7 8 5 6 5 6 7 6 6 5 5 5 4 5 5 5 5 6 6 6 7 7 8 8 8 8 8 8 9 9 9 9 9
2 3 4 4 4 5 5 6 6 7 6 6 8 5 4 4 4 5 6 5 4 3 3 3 5 5 5 5 5 6 5 6 8 8 7 7 7 7 9 9 9 9 9 9
Wind_Direction
255 262 263 259 253 246 247 251 255 266 268 262 273 261 242 227 219 212 210 203 211 211 209 206 204 205 205 197 189 183 185 185 175 166 168 161 162 162 162 167 165 162 160 157
257 262 260 258 253 257 251 246 253 252 262 261 277 316 276 263 228 221 236 229 242 232 229 213 211 211 202 200 195 192 191 187 170 163 164 164 161 160 164 160 160 161 153 148
251 258 264 250 239 247 252 249 243 238 240 259 259 250 247 263 282 313 308 300 294 267 238 224 211 209 206 200 189 193 190 179 167 164 163 163 162 161 158 160 164 161 160 156
263 271 250 259 259 249 251 251 250 250 251 259 253 260 255 239 250 258 282 298 309 303 285 248 227 211 209 194 190 193 184 172 170 165 157 163 150 153 154 151 155 158 151 143
256 252 268 279 295 1 343 297 9 321 319 341 330 295 265 239 319 298 284 274 278 275 282 280 258 223 204 192 190 188 181 178 173 156 161 159 156 163 159 151 153 156 153 147
227 254 263 203 11 337 4 252 17 5 6 346 330 265 294 3 337 317 302 290 269 264 267 261 247 226 205 188 187 186 183 177 167 161 159 163 165 167 160 157 147 148 153 159
239 252 266 34 350 301 235 24 329 338 319 318 313 312 322 314 313 310 298 301 306 296 234 257 249 211 199 187 195 190 164 158 166 170 162 161 157 167 159 159 153 159 159 163
251 258 254 354 346 352 312 262 250 269 276 288 288 291 291 291 296 303 302 301 306 304 290 255 252 225 210 203 191 161 154 162 158 158 161 158 163 166 166 157 165 163 155 159
262 291 304 306 296 299 283 287 289 284 280 273 273 274 263 268 281 296 294 292 301 306 305 288 267 225 208 180 169 160 158 159 155 160 158 165 166 166 165 162 166 169 166 170
272 269 279 289 298 285 281 281 284 276 278 281 267 242 253 268 270 275 283 289 297 298 296 283 245 246 221 156 162 161 156 152 150 156 164 166 165 166 163 171 171 175 169 175
276 275 278 282 276 289 303 300 289 281 279 278 275 276 271 270 266 272 278 286 285 288 284 269 249 209 162 177 169 161 151 145 153 161 166 162 172 171 172 188 181 172 178 174
261 276 293 289 295 297 297 291 287 284 278 266 264 267 270 267 266 270 270 273 275 283 276 260 220 202 187 177 174 153 149 149 156 156 158 166 161 137 126 165 165 163 158 171
269 285 287 292 290 293 286 286 286 282 277 277 270 262 266 267 266 263 260 259 249 260 271 253 200 197 192 186 176 165 162 151 148 152 158 163 156 157 151 146 160 166 174 183
274 278 281 284 294 299 296 296 297 292 280 273 272 272 264 262 267 265 260 256 244 239 241 212 225 185 178 181 191 168 165 154 153 148 157 149 165 156 153 162 167 165 173 186
263 275 287 292 295 309 295 302 298 299 298 287 276 269 267 267 265 264 266 260 246 236 236 185 208 177 168 168 190 189 163 155 146 150 140 158 159 152 168 172 165 150 156 180
288 280 296 311 316 318 319 317 314 317 308 294 278 273 274 281 282 275 267 255 244 238 225 198 184 176 174 169 171 179 162 139 142 143 149 163 154 157 172 171 154 158 180 178
278 305 324 309 309 307 312 311 316 314 319 315 312 309 296 282 275 271 272 268 250 224 213 190 192 153 178 168 170 179 164 146 142 144 173 161 168 165 177 169 164 171 191 176
290 290 285 288 295 306 314 321 323 314 305 305 299 290 280 272 271 274 268 252 249 193 189 189 172 161 176 163 172 180 165 149 158 176 167 167 174 165 179 180 169 178 176 169
311 313 307 290 295 302 305 316 317 311 305 306 305 302 295 286 286 281 270 244 230 212 188 167 165 166 171 166 169 167 166 159 174 171 157 164 164 179 177 178 170 184 171 169
314 310 288 292 298 303 304 295 302 314 317 317 315 314 317 313 306 308 282 228 216 202 152 161 166 164 165 164 170 172 168 167 163 158 166 163 163 178 178 174 176 185 174 176
304 293 290 289 289 288 278 292 306 326 324 321 323 325 324 319 323 341 359 28 7 132 151 156 157 161 154 159 169 159 163 160 150 165 161 164 158 181 184 171 188 183 178 182
293 305 291 288 297 301 299 302 310 327 334 337 334 333 330 336 342 349 15 30 29 80 139 145 141 150 151 159 163 159 160 155 154 155 159 165 170 185 183 182 190 188 184 176
294 292 292 295 299 304 304 304 291 310 330 339 335 335 338 335 344 355 4 0 36 47 66 105 134 140 147 155 144 154 161 148 151 155 161 173 182 182 186 188 188 188 183 172
245 262 286 319 316 327 335 335 331 333 311 319 334 337 340 347 351 10 14 24 22 48 82 114 124 136 143 142 150 152 151 144 152 159 168 173 179 175 188 191 192 191 185 182
270 287 308 319 330 352 348 343 331 326 334 331 338 337 351 353 352 345 1 26 47 60 80 113 132 140 137 143 147 152 142 155 157 166 170 175 178 174 181 195 193 195 188 184
301 334 325 318 323 329 339 341 344 343 336 329 331 341 337 342 349 354 8 24 32 62 98 120 134 122 120 127 134 138 149 156 163 175 174 175 172 172 189 197 196 194 192 187
260 258 305 312 332 338 340 332 327 332 327 314 311 334 333 326 344 353 359 8 32 60 90 119 148 151 151 145 150 153 161 178 184 183 181 180 174 179 198 198 194 193 192 188